417  
ASUS41 KGYX 221110  
RWRGYX  
WEATHER ROUNDUP FOR MAINE AND NEW HAMPSHIRE  
NATIONAL WEATHER SERVICE GRAY ME  
700 AM EDT THU AUG 22 2019  
 
MEZ002-005-006-010-012-015-018-020-021-024-026-027-029-221200-  
MAINE  
 
CITY SKY/WX TMP DP RH WIND PRES REMARKS
 
PORTLAND FOG 67 66 97 S3 29.82R VSB 1/2  
SANFORD CLOUDY 66 66 100 SW7 29.84R FOG  
BAR HARBOR CLOUDY 67 67 100 SW3 29.79S  
WISCASSET CLOUDY 68 67 96 CALM 29.82S FOG  
ROCKLAND FAIR 68 68 100 SW6 29.81R  
FRYEBURG FOG 64 63 96 SE3 29.83R VSB 1/2  
LEWISTONAUBURN CLOUDY 67 66 97 S7 29.82R  
AUGUSTA PTSUNNY 66 66 100 VRB5 29.81R FOG  
WATERVILLE FOG 65 65 100 VRB3 29.77S VSB 1/4  
BANGOR CLOUDY 68 67 96 W3 29.80R FOG  
GREENVILLE NOT AVBL  
MILLINOCKET CLOUDY 65 64 97 VRB3 29.78S FOG  
HOULTON CLOUDY 63 61 93 S5 29.75S FOG  
PRESQUE ISLE CLOUDY 64 63 96 S6 29.75F  
FRENCHVILLE CLOUDY 63 63 100 S8 29.72F FOG  
CARIBOU CLOUDY 64 62 93 S7 29.74S  

 
 
NHZ002-005-008-009-011-012-014-221200-  
NEW HAMPSHIRE  
 
CITY SKY/WX TMP DP RH WIND PRES REMARKS
 
ROCHESTER FAIR 67 66 97 CALM N/A  
NASHUA FAIR 67 67 100 CALM 29.85R  
MANCHESTER FAIR 68 66 93 S5 29.83R  
CONCORD PTSUNNY 66 65 96 CALM 29.84R FOG  
LACONIA FAIR 66 66 100 CALM 29.84R  
PLYMOUTH FOG 63 62 96 CALM 29.83S VSB 1/4  
BERLIN NOT AVBL  
WHITEFIELD FAIR 62 60 93 CALM 29.84R  
JAFFREY MOCLDY 66 64 93 CALM 29.88R  
KEENE FOG 64 64 100 CALM 29.86R VSB 1/4  
LEBANON CLOUDY 65 63 93 CALM 29.83R FOG  
MT WASHINGTON FOG 54 54 100 NW39G47 N/A VSB 0  

 
 
VTZ005-007-008-221200-  
VERMONT  
 
CITY SKY/WX TMP DP RH WIND PRES REMARKS
 
ST JOHNSBURY N/A 66 66 100 MISG 29.80S  
MONTPELIER FAIR 61 61 100 NW3 29.86 FOG  
BURLINGTON FAIR 70 66 87 S6 29.78R  

 
 
MAZ007-012-024-CTZ003-RIZ002-NYZ038-NYZ072-221200-  
SOUTHERN NEW ENGLAND AND NY  
 
CITY SKY/WX TMP DP RH WIND PRES REMARKS
 
BOSTON FAIR 72 69 90 S7 29.84R  
WORCESTER FAIR 67 67 100 SW8 29.87R  
NANTUCKET FAIR 71 71 100 S3 29.86S  
PROVIDENCE MOCLDY 74 74 100 S3 29.85R  
HARTFORD MOCLDY 69 68 96 CALM 29.83S FOG  
ALBANY FOG 69 67 93 S6 29.85R VSB 1  
NEW YORK CITY MOCLDY 78 70 76 S6 29.84R  

 
 
ANZ081-ANZ082-ANZ150-NHZ014-MEZ023>029-221200-  
COASTAL MARINE OBSERVATIONS  
 
STATION/POSITION TIME TEMP WIND PRES WAVE
 
AIR SEA DIR/SP/G HT/PER  
(UTC) (F) (DEG/KT/KT) (MB) (FT/S)  
MATINICUS ROCK 1050 63 1008.9R  
ISLE OF SHOALS 1000 68 230/ 12/ 12 1009.2R  
JEFFREYS LEDGE 1038 69 N/A 3/ 4  
CASHES LEDGE BUO 1050 66 62 250/ 6/ 8 1010.4R 3/ 6  
GEORGES BANK BUO 1050 71 66 200/ 10/ 12 1014.1F 5/ 6  

 
   
............KEY...........
 
 
WCI - WIND CHILL  
TC - TEMPERATURE IN CELSIUS  
VSB - VISIBILITY
IN MILES  
HX - HEAT INDEX  
FAIR- INDICATES FEW OR NO CLOUDS BELOW 12,000 FT, WITH NO  
SIGNIFICANT WEATHER AND/OR S TO VISIBILITY.  
 
 
 
CLICK HERE TO GO TO PREVIOUS BULLETINS.

The Nexlab ME Page
The Nexlab NH Page Main Text Page